Luxor, Egypt

6:37 AM EET on March 29, 2017 (GMT +0200)
Luxor International

Weather History for HELX - October, 2012

Change the Weather History Date:

Monday, October 8, 2012

  Actual Average Record
Temperature  
Mean Temperature 80 °F -  
Max Temperature 94 °F 88 °F 107 °F (2014)
Min Temperature 67 °F 62 °F 61 °F (2013)
Cooling Degree Days 16    
Growing Degree Days 30 (Base 50)    
Moisture  
Dew Point 58 °F    
Average Humidity 44    
Maximum Humidity 89    
Minimum Humidity 24    
Precipitation  
Precipitation 0.00 in 0.00 in - ()
Sea Level Pressure  
Sea Level Pressure 29.90 in    
Wind  
Wind Speed 2 mph ()    
Max Wind Speed 8 mph    
Max Gust Speed -    
Visibility 6.0 miles    
Events      
Averages and records for this station are not official NWS values.
T = Trace of Precipitation, MM = Missing Value Source: Averaged Metar Reports

Daily Weather History Graph

Daily Weather History Graph

Search for Another Location

Airport or City:

Trip Planner

Search our weather history database for the weather conditions in past years. The results will help you decide how hot, cold, wet, or windy it might be!

Date:

Astronomy

Oct. 08, 2012 Rise Set
Actual Time 5:44 AM EET 5:28 PM EET
Civil Twilight 5:21 AM EET 5:51 PM EET
Nautical Twilight 4:54 AM EET 6:17 PM EET
Astronomical Twilight 4:28 AM EET 6:44 PM EET
Moon 11:37 PM EET (10/8) 12:26 PM EET (10/8)
Length of Visible Light 12h 29m
Length of Day
11h 43m
Waning Gibbous, 49% of the Moon is Illuminated
Oct 8
Waning Gibbous
Oct 15
New
Oct 22
First Quarter
Oct 29
Full
Nov 7
Last Quarter

Hourly Weather History & Observations

Time (EET) Temp. Heat Index Dew Point Humidity Pressure Visibility Wind Dir Wind Speed Gust Speed Precip Events Conditions
12:00 AM 80.6 °F 80.8 °F 57.2 °F 45% 29.92 in - NNE 2.3 mph - N/A   Clear
1:00 AM 78.8 °F - 57.2 °F 47% 29.92 in - North 2.3 mph - N/A   Clear
2:00 AM 77 °F - 55 °F 36% 29.91 in 6 mi Calm Calm - -  
2:00 AM 77.0 °F - 55.4 °F 47% 29.92 in - Calm Calm - N/A   Clear
3:00 AM 73.4 °F - 53.6 °F 50% 29.92 in - Calm Calm - N/A   Clear
4:00 AM 69.8 °F - 53.6 °F 56% 29.92 in - Calm Calm - N/A   Clear
5:00 AM 69.8 °F - 51.8 °F 53% 29.92 in - Calm Calm - N/A   Clear
6:00 AM 68.0 °F - 51.8 °F 56% 29.92 in - Calm Calm - N/A   Clear
7:00 AM 71.6 °F - 53.6 °F 53% 29.92 in - Calm Calm - N/A   Clear
8:00 AM 78 °F - 59 °F 41% 29.95 in 6 mi Calm Calm - -  
8:00 AM 78.8 °F - 59.0 °F 51% 29.95 in - Calm Calm - N/A   Clear
9:00 AM 82.4 °F 82.9 °F 60.8 °F 48% 29.95 in - NW 3.5 mph - N/A   Clear
10:00 AM 87.8 °F 87.1 °F 59.0 °F 38% 29.95 in - NNW 8.1 mph - N/A   Clear
11:00 AM 89.6 °F 88.1 °F 57.2 °F 33% 29.92 in - NNW 5.8 mph - N/A   Clear
12:00 PM 89.6 °F 88.1 °F 57.2 °F 33% 29.89 in - NNE 3.5 mph - N/A   Clear
1:00 PM 91.4 °F 90.7 °F 59.0 °F 34% 29.89 in - NNW 3.5 mph - N/A   Clear
2:00 PM 91 °F - 59 °F 24% 29.86 in 6 mi NNE 3.5 mph - -  
2:00 PM 91.4 °F 90.7 °F 59.0 °F 34% 29.86 in - NNE 3.5 mph - N/A   Clear
3:00 PM 93.2 °F 92.6 °F 59.0 °F 32% 29.83 in - NNE 3.5 mph - N/A   Clear
4:00 PM 93.2 °F 91.9 °F 57.2 °F 30% 29.83 in - North 2.3 mph - N/A   Clear
5:00 PM 91.4 °F 89.9 °F 57.2 °F 31% 29.83 in - North 2.3 mph - N/A   Clear
6:00 PM 87.8 °F 86.5 °F 57.2 °F 35% 29.83 in - Calm Calm - N/A   Clear
7:00 PM 82.4 °F 82.9 °F 60.8 °F 48% 29.86 in - WNW 3.5 mph - N/A   Clear
8:00 PM 82 °F - 61 °F 39% 29.87 in 6 mi West 2.3 mph - -  
8:00 PM 82.4 °F 82.9 °F 60.8 °F 48% 29.86 in - West 2.3 mph - N/A   Clear
9:00 PM 82.4 °F 82.5 °F 59.0 °F 45% 29.89 in - Calm Calm - N/A   Clear
10:00 PM 80.6 °F 87.1 °F 77.0 °F 89% 29.89 in - SSE 2.3 mph - N/A   Clear
11:00 PM 78.8 °F - 57.2 °F 47% 29.89 in - Calm Calm - N/A   Clear